Weather History for KJST - January, 2014

Change the Weather History Date:

Tuesday, January 14, 2014

  Actual Average Record
Temperature  
Mean Temperature 38 °F 25 °F  
Max Temperature 45 °F 32 °F 72 °F (1972)
Min Temperature 31 °F 18 °F -16 °F (1912)
Degree Days  
Heating Degree Days 27 40  
Month to date heating degree days 574 553  
Since 1 July heating degree days 3268 3137  
Cooling Degree Days 0 0  
Month to date cooling degree days 0 0  
Year to date cooling degree days 0 0  
Moisture  
Dew Point 37 °F    
Average Humidity 88    
Maximum Humidity 100    
Minimum Humidity 75    
Precipitation  
Precipitation 0.05 in 0.11 in 1.77 in (1907)
Month to date precipitation 0.67 1.48  
Year to date precipitation 0.67 1.48  
Sea Level Pressure  
Sea Level Pressure 29.73 in    
Wind  
Wind Speed 9 mph (WSW)    
Max Wind Speed 17 mph    
Max Gust Speed 25 mph    
Visibility 7 miles    
Events Fog , Rain    
T = Trace of Precipitation, MM = Missing Value Source: NWS Daily Summary

Daily Weather History Graph

Daily Weather History Graph

Search for Another Location

Airport or City:

Trip Planner

Search our weather history database for the weather conditions in past years. The results will help you decide how hot, cold, wet, or windy it might be!

Date:

Astronomy

Jan. 14, 2014 Rise Set
Actual Time 7:36 AM EST 5:12 PM EST
Civil Twilight 7:06 AM EST 5:42 PM EST
Nautical Twilight 6:33 AM EST 6:16 PM EST
Astronomical Twilight 6:00 AM EST 6:48 PM EST
Moon 4:16 PM EST (1/14) 6:09 AM EST (1/14)
Length of Visible Light 10h 36m
Length of Day
9h 36m
Waxing Gibbous, 98% of the Moon is Illuminated
Jan 14
Waxing Gibbous
Jan 15
Full
Jan 24
Last Quarter
Jan 30
New
Feb 6
First Quarter

Hourly Weather History & Observations

Time (EST) Temp. Windchill Dew Point Humidity Pressure Visibility Wind Dir Wind Speed Gust Speed Precip Events Conditions
12:54 AM 45.0 °F 41.2 °F 43.0 °F 93% 29.73 in 10.0 mi South 6.9 mph - 0.01 in Rain Light Rain
1:08 AM 45.0 °F 40.6 °F 42.1 °F 90% 29.71 in 10.0 mi SSW 8.1 mph - 0.00 in Rain Light Rain
1:17 AM 45.0 °F 40.6 °F 42.1 °F 90% 29.71 in 10.0 mi South 8.1 mph - 0.00 in Rain Light Rain
1:28 AM 45.0 °F 41.2 °F 42.1 °F 90% 29.70 in 10.0 mi SSW 6.9 mph - 0.00 in Rain Light Rain
1:54 AM 45.0 °F 40.1 °F 41.0 °F 86% 29.71 in 10.0 mi SSW 9.2 mph 21.9 mph 0.00 in Rain Light Rain
2:54 AM 43.0 °F 38.2 °F 39.9 °F 89% 29.71 in 10.0 mi SW 8.1 mph - 0.01 in Rain Light Rain
3:22 AM 43.0 °F 38.2 °F 39.9 °F 89% 29.69 in 10.0 mi SSW 8.1 mph - 0.00 in Rain Light Rain
3:54 AM 43.0 °F 37.2 °F 39.9 °F 89% 29.70 in 10.0 mi SSW 10.4 mph - 0.00 in Rain Light Rain
4:36 AM 43.0 °F 38.2 °F 39.9 °F 89% 29.68 in 10.0 mi SW 8.1 mph - 0.00 in Rain Light Rain
4:54 AM 42.1 °F 37.7 °F 39.9 °F 92% 29.70 in 10.0 mi SSW 6.9 mph - 0.00 in Rain Light Rain
5:52 AM 42.8 °F 38.6 °F 41.0 °F 93% 29.68 in 4.0 mi SW 6.9 mph - 0.01 in Rain Light Rain
5:54 AM 42.1 °F 37.1 °F 41.0 °F 96% 29.70 in 3.0 mi SW 8.1 mph - 0.01 in   Overcast
6:00 AM 42.1 °F 37.1 °F 41.0 °F 96% 29.68 in 2.5 mi SW 8.1 mph - 0.00 in Rain Light Rain
6:08 AM 42.1 °F 37.1 °F 41.0 °F 96% 29.67 in 3.0 mi SW 8.1 mph - 0.00 in Rain Light Rain
6:16 AM 42.1 °F 37.1 °F 41.0 °F 96% 29.68 in 2.5 mi SW 8.1 mph - 0.00 in Rain Light Rain
6:24 AM 41.0 °F 36.4 °F 41.0 °F 100% 29.68 in 1.5 mi SW 6.9 mph - 0.01 in Rain Light Rain
6:43 AM 41.0 °F 35.8 °F 39.9 °F 96% 29.68 in 0.5 mi SW 8.1 mph - 0.01 in Fog , Rain Light Rain
6:54 AM 41.0 °F 35.8 °F 41.0 °F 100% 29.71 in 1.0 mi WSW 8.1 mph - 0.01 in Rain Light Rain
7:06 AM 41.0 °F 35.8 °F 41.0 °F 100% 29.69 in 0.8 mi SW 8.1 mph - 0.00 in Rain Light Rain
7:15 AM 41.0 °F 35.8 °F 39.9 °F 96% 29.69 in 1.2 mi WSW 8.1 mph - 0.00 in Rain Light Rain
7:45 AM 41.0 °F 37.1 °F 41.0 °F 100% 29.70 in 0.5 mi WSW 5.8 mph - 0.00 in Fog , Rain Light Rain
7:54 AM 41.0 °F 35.2 °F 39.9 °F 96% 29.74 in 0.5 mi WSW 9.2 mph - 0.00 in Fog , Rain Light Rain
8:11 AM 41.0 °F 35.2 °F 39.9 °F 96% 29.72 in 1.2 mi WSW 9.2 mph - 0.00 in Rain Light Rain
8:31 AM 39.9 °F 34.5 °F 39.9 °F 100% 29.71 in 0.5 mi West 8.1 mph - 0.00 in Fog , Rain Light Rain
8:35 AM 39.9 °F 34.5 °F 39.9 °F 100% 29.71 in 1.0 mi West 8.1 mph - 0.00 in Rain Light Rain
8:43 AM 39.9 °F 35.8 °F 39.9 °F 100% 29.71 in 9.0 mi West 5.8 mph - 0.00 in Rain Light Rain
8:54 AM 39.9 °F 35.1 °F 39.0 °F 97% 29.75 in 7.0 mi West 6.9 mph - 0.00 in Rain Light Rain
9:21 AM 39.9 °F 33.9 °F 39.0 °F 97% 29.74 in 2.0 mi West 9.2 mph - 0.00 in Rain Light Rain
9:33 AM 39.9 °F 33.4 °F 39.0 °F 97% 29.73 in 4.0 mi WNW 10.4 mph - 0.01 in Rain Light Rain
9:40 AM 39.9 °F 33.9 °F 39.0 °F 97% 29.73 in 5.0 mi WNW 9.2 mph - 0.01 in Rain Light Rain
9:54 AM 39.9 °F 35.1 °F 39.0 °F 97% 29.76 in 7.0 mi WNW 6.9 mph - 0.01 in Rain Light Rain
10:03 AM 39.9 °F 33.9 °F 39.0 °F 97% 29.72 in 7.0 mi WNW 9.2 mph - 0.00 in Rain Light Rain
10:54 AM 39.0 °F 34.8 °F 37.9 °F 96% 29.76 in 10.0 mi WSW 5.8 mph - 0.00 in   Overcast
11:54 AM 39.0 °F 32.8 °F 36.0 °F 89% 29.75 in 9.0 mi West 9.2 mph - 0.00 in Rain Light Rain
12:54 PM 39.0 °F 34.0 °F 36.0 °F 89% 29.73 in 10.0 mi WSW 6.9 mph - 0.00 in Rain Light Rain
1:54 PM 39.9 °F 33.4 °F 37.0 °F 89% 29.72 in 10.0 mi West 10.4 mph - 0.00 in Rain Light Rain
2:40 PM 39.9 °F 32.9 °F 35.1 °F 83% 29.69 in 10.0 mi West 11.5 mph - 0.00 in   Overcast
2:54 PM 39.9 °F 32.1 °F 35.1 °F 83% 29.73 in 10.0 mi WNW 13.8 mph - 0.00 in Rain Light Rain
3:05 PM 39.0 °F 30.6 °F 35.1 °F 86% 29.70 in 10.0 mi West 15.0 mph 23.0 mph 0.00 in   Overcast
3:54 PM 37.9 °F 29.6 °F 33.1 °F 83% 29.78 in 10.0 mi West 13.8 mph 24.2 mph 0.00 in Rain Light Rain
4:12 PM 37.9 °F 28.5 °F 32.0 °F 79% 29.75 in 10.0 mi West 17.3 mph 21.9 mph 0.00 in Rain Light Rain
4:36 PM 37.0 °F 30.4 °F 30.9 °F 79% 29.75 in 10.0 mi West 9.2 mph - 0.00 in Rain Light Rain
4:54 PM 37.0 °F 31.0 °F 30.0 °F 76% 29.80 in 10.0 mi West 8.1 mph - 0.00 in Rain Light Rain
5:28 PM 35.1 °F 27.4 °F 28.9 °F 78% 29.76 in 10.0 mi West 10.4 mph - 0.00 in Rain Light Rain
5:54 PM 35.1 °F 26.4 °F 28.9 °F 78% 29.81 in 10.0 mi West 12.7 mph - 0.00 in   Clear
6:54 PM 34.0 °F 28.0 °F 28.9 °F 82% 29.82 in 10.0 mi SW 6.9 mph - N/A   Clear
7:54 PM 34.0 °F 28.0 °F 30.0 °F 85% 29.84 in 10.0 mi SW 6.9 mph - N/A   Clear
8:54 PM 33.1 °F 24.9 °F 28.0 °F 82% 29.84 in 10.0 mi SW 10.4 mph - N/A   Clear
9:54 PM 32.0 °F 25.6 °F 27.0 °F 82% 29.85 in 10.0 mi SW 6.9 mph - N/A   Clear
10:54 PM 34.0 °F 27.2 °F 27.0 °F 75% 29.83 in 10.0 mi SW 8.1 mph - N/A   Clear
11:54 PM 34.0 °F 26.0 °F 27.0 °F 75% 29.84 in 10.0 mi SSW 10.4 mph - N/A   Clear